KB3PHD Weather Reports


time (UTC)temp
F
wind
direction
speed
knots
gust
knots
rain 1hr
in
rain 24hr
in
rain mn
in
humidity
%
barometer
mb
20260510152538 73 267 9.6 13.0 0.00 0.01 0.00 51 1013.7
20260510151518 73 286 6.1 10.4 0.00 0.01 0.00 50 1013.6
20260510150518 72 162 2.6 5.2 0.00 0.01 0.00 57 1013.6
20260510145519 71 116 2.6 5.2 0.00 0.01 0.00 58 1013.4
20260510144518 71 154 2.6 6.1 0.00 0.01 0.00 59 1013.2
20260510143518 71 154 3.5 7.0 0.00 0.01 0.00 60 1013.2
20260510142515 70 150 2.6 5.2 0.00 0.01 0.00 62 1013.2
20260510141539 69 174 2.6 4.3 0.00 0.01 0.00 65 1013.1
20260510140539 69 253 1.7 4.3 0.00 0.01 0.00 65 1013.2
20260510135519 67 213 0.9 3.5 0.00 0.01 0.00 68 1013.3
20260510134519 66 170 0.9 3.5 0.00 0.01 0.00 70 1013.4
20260510133518 64 141 1.7 3.5 0.00 0.01 0.00 73 1013.5
20260510132519 63 160 1.7 4.3 0.00 0.01 0.00 77 1013.5
20260510131516 62 172 2.6 4.3 0.00 0.01 0.00 80 1013.4
20260510130519 61 171 3.5 6.1 0.00 0.01 0.00 84 1013.5
20260510125521 62 165 2.6 4.3 0.00 0.01 0.00 82 1013.6
20260510124520 61 165 1.7 3.5 0.00 0.01 0.00 84 1013.7
20260510123517 61 144 1.7 3.5 0.00 0.01 0.00 84 1013.7
20260510122537 61 313 0.0 1.7 0.00 0.01 0.00 83 1013.7
20260510121517 60 31 0.0 1.7 0.00 0.01 0.00 85 1013.6
20260510120517 59 56 0.9 2.6 0.00 0.01 0.00 88 1013.5
20260510115520 58 76 0.9 2.6 0.00 0.01 0.00 90 1013.4
20260510114517 57 58 0.0 0.9 0.00 0.01 0.00 93 1013.4
20260510113517 56 28 0.9 3.5 0.00 0.01 0.00 95 1013.3
20260510112518 55 5 0.0 2.6 0.00 0.01 0.00 97 1013.0
20260510111518 54 21 0.9 2.6 0.00 0.01 0.00 98 1012.7
20260510110520 54 8 2.6 3.5 0.00 0.01 0.00 99 1012.6
20260510105518 53 356 0.9 2.6 0.00 0.01 0.00 99 1012.5
20260510104518 53 317 0.0 2.6 0.00 0.01 0.00 99 1012.3
20260510103522 53 34 0.0 0.9 0.00 0.01 0.00 100 1012.1
20260510102521 52 330 1.7 2.6 0.00 0.01 0.00 100 1012.0
20260510101521 53 354 2.6 2.6 0.00 0.01 0.00 100 1011.9
20260510100523 52 56 1.7 3.5 0.00 0.01 0.00 100 1011.9
20260510095523 53 7 0.9 1.7 0.00 0.01 0.00 100 1011.8
20260510094523 53 15 1.7 2.6 0.00 0.01 0.00 100 1011.8
20260510093522 54 12 1.7 2.6 0.00 0.01 0.00 100 1011.7
20260510092522 54 70 0.0 1.7 0.00 0.01 0.00 100 1011.8
20260510091522 54 115 0.0 1.7 0.00 0.01 0.00 100 1011.7
20260510090524 53 100 0.0 0.9 0.00 0.01 0.00 99 1011.7
20260510085522 53 0.0 0.0 0.00 0.01 0.00 99 1011.5
20260510084523 54 0.0 0.0 0.00 0.01 0.00 98 1011.5
20260510083543 54 341 0.0 1.7 0.00 0.01 0.00 98 1011.5
20260510082523 54 326 1.7 2.6 0.00 0.01 0.00 98 1011.3
20260510081523 55 326 3.5 3.5 0.00 0.01 0.00 98 1011.2
20260510080525 55 324 2.6 3.5 0.00 0.01 0.00 98 1011.0
20260510075523 55 334 2.6 2.6 0.00 0.01 0.00 98 1010.9
20260510074524 55 0.0 0.0 0.00 0.01 0.00 98 1010.8
20260510073524 55 0.0 0.0 0.00 0.01 0.00 98 1010.8
20260510072523 55 0.0 0.0 0.00 0.01 0.00 97 1010.8
20260510071524 56 29 0.0 0.0 0.00 0.01 0.00 97 1010.6
20260510070524 56 354 0.9 1.7 0.00 0.01 0.00 97 1010.5
20260510065525 56 34 0.0 0.9 0.00 0.01 0.00 97 1010.4
20260510064525 56 0.0 0.0 0.00 0.01 0.00 97 1010.4
20260510063524 56 39 0.0 1.7 0.00 0.01 0.00 96 1010.4
20260510062524 56 21 0.0 1.7 0.00 0.01 0.00 95 1010.4
20260510061525 57 25 1.7 2.6 0.00 0.01 0.00 95 1010.5
20260510060545 57 9 1.7 1.7 0.00 0.01 0.00 94 1010.4
20260510055525 57 44 1.7 2.6 0.00 0.01 0.00 94 1010.4
20260510054519 58 356 3.5 4.3 0.00 0.01 0.00 93 1010.4
20260510053520 58 333 3.5 5.2 0.00 0.01 0.00 93 1010.5
20260510052537 58 341 2.6 4.3 0.00 0.01 0.00 93 1010.5
20260510051517 58 354 2.6 4.3 0.00 0.01 0.00 92 1010.5
20260510050518 58 22 2.6 3.5 0.00 0.01 0.00 91 1010.4
20260510045519 59 48 2.6 3.5 0.00 0.01 0.00 91 1010.5
20260510044538 59 58 1.7 2.6 0.00 0.01 0.00 90 1010.5
20260510043538 59 23 2.6 3.5 0.00 0.01 0.00 90 1010.6
20260510042518 59 42 2.6 3.5 0.00 0.01 0.00 89 1010.6
20260510041518 60 17 2.6 4.3 0.00 0.01 0.00 89 1010.5
20260510040518 60 22 2.6 3.5 0.00 0.01 0.00 88 1010.5
20260510035518 60 17 1.7 2.6 0.00 0.01 0.01 87 1010.4
20260510034519 60 32 1.7 3.5 0.00 0.01 0.01 86 1010.3
20260510033556 61 18 2.6 3.5 0.00 0.01 0.01 85 1010.4
20260510032520 61 5 2.6 4.3 0.00 0.01 0.01 84 1010.4
20260510031519 62 22 2.6 4.3 0.00 0.01 0.01 83 1010.3
20260510030519 62 3 3.5 4.3 0.00 0.01 0.01 82 1010.3
20260510025519 62 358 3.5 5.2 0.00 0.01 0.01 81 1010.2
20260510024516 63 20 2.6 6.1 0.00 0.01 0.01 80 1010.2
20260510023536 63 11 3.5 5.2 0.00 0.01 0.01 80 1010.1
20260510022516 64 6 4.3 7.0 0.00 0.01 0.01 79 1010.0
20260510021520 64 5 4.3 6.1 0.00 0.01 0.01 77 1010.0
20260510020520 64 2 2.6 4.3 0.00 0.01 0.01 76 1009.9
20260510015537 65 353 3.5 4.3 0.00 0.01 0.01 77 1009.8
20260510014517 66 16 3.5 5.2 0.00 0.01 0.01 72 1009.7
20260510013517 67 352 1.7 2.6 0.00 0.01 0.01 70 1009.5
20260510012517 67 101 0.9 2.6 0.00 0.01 0.01 70 1009.4
20260510011519 67 130 2.6 7.0 0.00 0.01 0.01 70 1009.3
20260510010539 67 87 1.7 3.5 0.00 0.01 0.01 71 1009.2
20260510005558 67 70 3.5 5.2 0.00 0.01 0.01 72 1009.1
20260510004519 67 38 2.6 5.2 0.00 0.01 0.01 73 1009.0
20260510003518 67 19 3.5 4.3 0.00 0.01 0.01 72 1009.0
20260510002518 68 33 2.6 4.3 0.00 0.01 0.01 71 1008.8
20260510001539 69 26 3.5 6.1 0.00 0.01 0.01 69 1008.8
20260510000515 70 14 3.5 6.1 0.00 0.01 0.01 64 1008.7
20260509235518 72 136 0.0 1.7 0.00 0.01 0.01 55 1008.6
20260509234519 72 150 1.7 2.6 0.00 0.01 0.01 55 1008.5
20260509233519 73 141 1.7 2.6 0.00 0.01 0.01 55 1008.4
20260509232519 73 148 0.0 1.7 0.00 0.01 0.01 53 1008.4
20260509231516 73 153 1.7 3.5 0.00 0.01 0.01 54 1008.3
20260509230516 72 157 1.7 3.5 0.00 0.01 0.01 54 1008.4
20260509225518 72 158 3.5 7.0 0.00 0.01 0.01 54 1008.3
20260509224519 72 163 3.5 6.1 0.00 0.01 0.01 53 1008.4
20260509223541 73 162 6.1 8.7 0.00 0.01 0.01 53 1008.3
20260509222517 73 162 7.0 11.3 0.00 0.01 0.01 53 1008.4
20260509221517 73 163 7.0 11.3 0.00 0.01 0.01 53 1008.4
20260509220537 72 160 6.1 10.4 0.00 0.01 0.01 53 1008.4
20260509215518 72 159 7.8 10.4 0.00 0.01 0.01 53 1008.4
20260509214519 73 209 2.6 7.0 0.00 0.01 0.01 52 1008.4
20260509213518 73 170 6.1 11.3 0.00 0.01 0.01 52 1008.3
20260509212517 73 204 1.7 4.3 0.00 0.01 0.01 52 1008.4
20260509211519 73 167 5.2 12.2 0.00 0.01 0.01 53 1008.3
20260509210518 72 165 4.3 10.4 0.00 0.01 0.01 53 1008.2
20260509205518 72 166 4.3 9.6 0.00 0.01 0.01 53 1008.2
20260509204518 71 171 4.3 9.6 0.00 0.01 0.01 54 1008.1
20260509203518 71 166 7.8 13.0 0.00 0.01 0.01 56 1008.0
20260509202519 71 160 5.2 10.4 0.00 0.01 0.01 56 1008.1
20260509201519 71 169 5.2 11.3 0.00 0.01 0.01 56 1008.3
20260509200519 70 162 5.2 11.3 0.00 0.01 0.01 57 1008.5
20260509195516 70 170 3.5 10.4 0.00 0.01 0.01 57 1008.7
20260509194516 70 201 3.5 9.6 0.00 0.01 0.01 57 1008.8
20260509193539 70 180 3.5 11.3 0.00 0.01 0.01 57 1009.1
20260509192539 69 223 3.5 9.6 0.00 0.01 0.01 59 1009.3
20260509191540 69 191 3.5 7.0 0.01 0.01 0.01 60 1009.1
20260509190516 68 210 3.5 10.4 0.01 0.01 0.01 63 1009.1
20260509185517 67 181 0.9 4.3 0.01 0.01 0.01 65 1009.3
20260509184517 67 175 3.5 8.7 0.01 0.01 0.01 63 1009.5
20260509183517 67 172 3.5 7.8 0.01 0.01 0.01 65 1009.6
20260509182520 68 189 3.5 8.7 0.01 0.01 0.01 64 1009.8
20260509181517 69 180 7.0 14.8 0.00 0.00 0.00 56 1009.8
20260509180517 69 180 7.0 15.6 0.00 0.00 0.00 55 1009.8
20260509175518 69 185 6.1 12.2 0.00 0.00 0.00 55 1010.0
20260509174518 69 192 4.3 12.2 0.00 0.00 0.00 55 1010.1
20260509173518 69 196 3.5 11.3 0.00 0.00 0.00 55 1010.1
20260509172518 69 205 3.5 9.6 0.00 0.00 0.00 55 1010.2
20260509171539 68 181 7.0 12.2 0.00 0.00 0.00 56 1010.2
20260509170519 68 187 4.3 15.6 0.00 0.00 0.00 56 1010.3
20260509165518 68 185 4.3 11.3 0.00 0.00 0.00 57 1010.4
20260509164519 68 188 5.2 13.9 0.00 0.00 0.00 56 1010.4
20260509163520 67 201 3.5 8.7 0.00 0.00 0.00 57 1010.4
20260509162539 67 241 4.3 10.4 0.00 0.00 0.00 57 1010.5
20260509161557 67 218 1.7 7.0 0.00 0.00 0.00 59 1010.5
20260509160539 66 187 3.5 10.4 0.00 0.00 0.00 59 1010.5
20260509155519 66 234 2.6 9.6 0.00 0.00 0.00 60 1010.7
20260509154539 65 237 6.1 12.2 0.00 0.00 0.00 61 1010.8
20260509153519 65 177 5.2 13.9 0.00 0.00 0.00 60 1010.9